Regional Weather Roundup
Issued by NWS

Home | Current Version | Previous Version | Graphics & Text | Print | Product List | Glossary On
Versions: 1 2 3 4 5 6 7 8 9 10 11 12 13 14 15 16 17 18 19 20 21 22 23 24 25 26 27 28 29 30 31 32 33 34 35 36 37 38 39 40 41 42 43 44 45 46 47 48 49 50
897
ASUS45 KABQ 172210
RWRNM
NEW MEXICO REGIONAL WEATHER ROUNDUP
NATIONAL WEATHER SERVICE ALBUQUERQUE NM
400 PM MDT TUE OCT 17 2017

NOTE: "FAIR" MEANS FEW OR NO CLOUDS BELOW 12,000 FEET AGL WITH NO
       SIGNIFICANT WEATHER OR OBSTRUCTIONS TO VISION.

      THIS PRODUCT IS RELEASED AS TWO VERSIONS.  ONE VERSION NEAR
      THE TOP OF THE HOUR CONTAINING PRELIMINARY DATA FROM ALBUQUERQUE
      AND OTHER STATIONS.  A FINAL VERSION WITH ADDITIONAL DATA IS
      ISSUED ABOUT 10 MINUTES AFTER THE HOUR.

NMZ501-503-504-510>518-172300-
NORTHWEST PLATEAU/NORTHCENTRAL MOUNTAINS

CITY           SKY/WX    TMP DP  RH WIND       PRES   REMARKS
FARMINGTON     FAIR      73  11   9 W7        30.23F
LOS ALAMOS     FAIR      66  18  15 SE6       30.32S
SANTA FE       FAIR      70  26  19 SW8       30.26S
TAOS           FAIR      70  18  13 W9        30.31F
ANGEL FIRE     FAIR      62  12  14 W13G18    30.35S

$$
NMZ402-403-502-505>509-172300-
WESTCENTRAL MOUNTAINS/SOUTHWEST MOUNTAINS

CITY           SKY/WX    TMP DP  RH WIND       PRES   REMARKS
GALLUP         FAIR      76  20  12 S10       30.27F
GRANTS         FAIR      75  10   8 NW8       30.29S
SILVER CITY    FAIR      77  41  27 S13       30.23F

$$
NMZ407-409-411-412-172300-
SOUTHERN DESERTS

CITY           SKY/WX    TMP DP  RH WIND       PRES   REMARKS
DEMING         FAIR      82  45  27 CALM      30.17F
LAS CRUCES     FAIR      82  37  20 SW5       30.19S
HOLLOMAN AFB   SUNNY     82  39  22 N6        30.19
ALAMOGORDO     FAIR      81  39  22 CALM      30.17F
T OR C         FAIR      80  38  22 S7        30.18F

$$
NMZ519>523-172300-
CENTRAL VALLEYS/CENTRAL HIGHLANDS

CITY           SKY/WX    TMP DP  RH WIND       PRES   REMARKS
ALBUQUERQUE    PTSUNNY   74  23  15 VRB5      30.22F
DOUBLE EAGLE   MOSUNNY   73  19  13 W7        30.25F
MORIARTY ARPT  FAIR      75  26  16 NW6       30.26F
CLINES CORNERS FAIR      70  14  11 W15G24    30.29F
BELEN          FAIR      74  25  16 CALM      30.22F
SOCORRO        FAIR      77  30  17 CALM      30.20F

$$
NMZ524>526-539-540-172300-
SOUTHCENTRAL MOUNTAINS

CITY           SKY/WX    TMP DP  RH WIND       PRES   REMARKS
RUIDOSO        FAIR      72  30  21 NW12G21   30.32S

$$
NMZ527>531-172300-
NORTHEAST HIGHLANDS/NORTHEAST PLAINS

CITY           SKY/WX    TMP DP  RH WIND       PRES   REMARKS
LAS VEGAS      FAIR      72  20  14 S8        30.24S
RATON          FAIR      75  12   9 S9        30.17F
CLAYTON        FAIR      77  23  13 CALM      30.11F

$$
NMZ532>537-172300-
EASTCENTRAL PLAINS

CITY           SKY/WX    TMP DP  RH WIND       PRES   REMARKS
SANTA ROSA     FAIR      81  23  11 SW9G16    30.11F
TUCUMCARI      FAIR      85  33  15 W10       30.06F
CANNON AFB     FAIR      79  37  22 S14       30.14F
CLOVIS AIRPORT FAIR      79  38  22 SW15      30.14F

$$
NMZ028-029-538-172300-
SOUTHEAST PLAINS

CITY           SKY/WX    TMP DP  RH WIND       PRES   REMARKS
ROSWELL        FAIR      81  34  18 S13       30.12F
ARTESIA        FAIR      81  36  19 CALM      30.12F
CARLSBAD       FAIR      81  46  29 SE10      30.10F
HOBBS          SUNNY     79  41  25 S13       30.15F


$$




USA.gov is the U.S. government's official web portal to all federal, state and local government web resources and services.